Home   Weather   Township of Fairfield   Past weeks
Flag for USA

Past Weather in Township of Fairfield, Iowa, USA — Yesterday and Last 2 Weeks

Now
29 °F

Sunny.


Feels Like: 20 °F
Forecast: 34 / 22 °F
Wind: 9 mph from Northwest

Location: Waterloo Municipal Airport

Current Time: Dec 6, 2019 at 9:50:26 am

Latest Report: Dec 6, 2019 at 8:54 am


Visibility: 10 mi

Pressure: 30.36 "Hg

Humidity: 79%

Dew Point: 23 °F

Location of Township of FairfieldLocation

Past Weather in Township of Fairfield — Graph

°F

Township of Fairfield Temperature Yesterday

Maximum temperature yesterday: 53 °F (at 1:54 pm)
Minimum temperature yesterday: 23 °F (at 4:54 am)
Average temperature yesterday: 35 °F

High & Low Weather Summary for the Past Weeks

 TemperatureHumidityPressure
High53 °F (Dec 5, 1:54 pm)93% (Nov 26, 8:23 pm)30.56 "Hg (Nov 26, 8:23 pm)
Low18 °F (Dec 2, 6:54 am)42% (Nov 25, 2:54 pm)29.24 "Hg (Nov 27, 12:54 am)
Average34 °F79%29.88 "Hg
* Reported Nov 21 7:04 am — Dec 6 7:54 am, Township of Fairfield. Weather by CustomWeather, © 2019

Note: Actual official high and low records may vary slightly from our data, if they occured in-between our weather recording intervals... More about our weather records

Township of Fairfield Weather History for the Previous 24 Hours

Scroll right to see more
 ConditionsComfort  
Time TempWeatherWind HumidityBarometerVisibility
7:54 am
Fri, Dec 6
26 °FSunny.7 mph81%30.34 "Hg10 mi
6:54 am27 °FClear.9 mph78%30.31 "Hg10 mi
6:07 am28 °FPassing clouds.10 mph78%30.26 "Hg10 mi
5:54 am29 °FPassing clouds.9 mph75%30.28 "Hg10 mi
5:18 am30 °FPassing clouds.9 mph72%30.25 "Hg10 mi
4:54 am31 °FPassing clouds.18 mph73%30.25 "Hg10 mi
3:54 am32 °FPassing clouds.20 mph73%30.22 "Hg10 mi
2:54 am31 °FPassing clouds.15 mph79%30.21 "Hg10 mi
2:38 am31 °FPassing clouds.18 mph79%30.18 "Hg10 mi
1:54 am32 °FPassing clouds.16 mph79%30.17 "Hg10 mi
12:54 am34 °FOvercast.18 mph79%30.13 "Hg7 mi
12:20 am33 °FPassing clouds.17 mph82%30.10 "Hg7 mi
11:54 pm
Thu, Dec 5
33 °FClear.16 mph82%30.10 "Hg7 mi
10:54 pm33 °FClear.15 mph82%30.07 "Hg8 mi
9:54 pm34 °FClear.16 mph82%30.03 "Hg10 mi
8:54 pm37 °FClear.14 mph79%29.99 "Hg10 mi
7:54 pm39 °FClear.12 mph79%29.97 "Hg10 mi
6:54 pm43 °FClear.6 mph76%29.94 "Hg10 mi
5:54 pm44 °FClear.5 mph73%29.92 "Hg10 mi
4:54 pm44 °FClear.8 mph73%29.90 "Hg10 mi
3:54 pm50 °FSunny.8 mph61%29.88 "Hg10 mi
2:54 pm53 °FSunny.13 mph52%29.87 "Hg10 mi
1:54 pm53 °FSunny.13 mph56%29.87 "Hg10 mi
12:54 pm51 °FSunny.10 mph59%29.88 "Hg10 mi
11:54 am47 °FSunny.7 mph69%29.92 "Hg10 mi
10:54 am40 °FSunny.3 mph80%29.95 "Hg10 mi
9:54 am35 °FSunny.7 mph85%29.97 "Hg10 mi
Weather by CustomWeather, © 2019

See weather overview

Advertising